sat.trackr.live / text

‹ back to catalog

STARLINK-4085

NORAD 53262 · 2022-086W

PAYLOAD ACTIVE UNKNOWN

§ Identity

Operator
Country
US
Launch date
2022-07-24
Launch site
AFETR
Launch vehicle
Mass (kg)
RCS (m²)

Purposes: comms

External: N2YO · Heavens-Above · Gunter

§ Orbital elements

Epoch: 2026-09-19T08:15:02.820096Z

Period
93.90 min
Inclination
53.1602°
Eccentricity
0.0001068
Mean motion
15.33546241 rev/d
Perigee alt
464.5 km
Apogee alt
466.0 km
Semi-major
6,843.4 km
B*
1.9604e-5
RAAN
31.2999°
Arg perigee
78.1840°
Mean anomaly
281.9282°
Rev number
23,048

§ Raw data

STARLINK-40851 53262U 22086W   26262.34378264  .00000272  00000+0  19604-4 0  99952 53262  53.1602  31.2999 0001068  78.1840 281.9282 15.33546241230486

JSON: /api/v1/satellites/53262 · /tle

For live sub-satellite position, see the globe view (requires WebGL).

§ Visibility from observer

Set your observer location to see the next 7 days of passes ≥ 10°. The values pass through the URL so the page stays shareable.

No JS? Fill the form by hand. The geolocation button needs JavaScript.